Location: Rumah Long Bangan
(2.8362°N, 113.7519°E)
Time: 05:55:47
(UTC+00:00)

Cosmos 2366 rocket - Pass Details

Date: 24 October 2021
Orbit: 956 x 996 km, 82.9° (Epoch: 28 November)

Event Time Altitude Azimuth Distance (km) Brightness Sun altitude
Rises 20:36:19 0° 359° (N) 3,700 6.9 -23.3°
Reaches altitude 10° 20:38:50 10° 1° (N) 2,752 6.2 -22.7°
Maximum altitude 20:45:10 79° 86° (E) 1,012 4.1 -21.1°
Drops below altitude 10° 20:51:28 10° 173° (S) 2,745 6.6 -19.6°
Sets 20:53:59 0° 174° (S) 3,689 7.3 -19.0°
